Time,TemperatureF,DewpointF,PressureIn,WindDirection,WindDirectionDegrees,WindSpeedMPH,WindSpeedGustMPH,Humidity,HourlyPrecipIn,Conditions,Clouds,dailyrainin,SoftwareType,DateUTC
2013-02-17 00:01:00,45.0,39.0,30.03,East,98,0.0,1.0,80,0.00,,,0.00,,2013-02-17 08:01:00,
2013-02-17 00:11:00,45.0,39.0,30.03,East,98,0.0,1.0,80,0.00,,,0.00,,2013-02-17 08:11:00,
2013-02-17 00:21:00,45.0,40.0,30.03,East,98,0.0,1.0,81,0.00,,,0.00,,2013-02-17 08:21:00,
2013-02-17 00:31:00,44.0,39.0,30.03,East,96,0.0,0.0,82,0.00,,,0.00,,2013-02-17 08:31:00,
2013-02-17 00:41:00,44.0,39.0,30.03,East,96,0.0,0.0,82,0.00,,,0.00,,2013-02-17 08:41:00,
2013-02-17 00:52:00,44.0,39.0,30.03,East,98,1.0,2.0,83,0.00,,,0.00,,2013-02-17 08:52:00,
2013-02-17 01:01:00,44.0,40.0,30.03,East,98,0.0,1.0,85,0.00,,,0.00,,2013-02-17 09:01:00,
2013-02-17 01:11:00,44.0,40.0,30.03,East,98,0.0,1.0,85,0.00,,,0.00,,2013-02-17 09:11:00,
2013-02-17 01:21:00,44.0,39.0,30.03,East,98,0.0,1.0,84,0.00,,,0.00,,2013-02-17 09:21:00,
2013-02-17 01:31:00,44.0,39.0,30.03,East,98,0.0,1.0,84,0.00,,,0.00,,2013-02-17 09:31:00,
2013-02-17 01:41:00,44.0,39.0,30.03,East,98,0.0,1.0,84,0.00,,,0.00,,2013-02-17 09:41:00,
2013-02-17 01:52:00,43.0,38.0,30.03,East,98,0.0,0.0,84,0.00,,,0.00,,2013-02-17 09:52:00,
2013-02-17 02:01:00,43.0,38.0,30.02,East,98,0.0,1.0,84,0.00,,,0.00,,2013-02-17 10:01:00,
2013-02-17 02:11:00,43.0,38.0,30.02,East,98,0.0,1.0,84,0.00,,,0.00,,2013-02-17 10:11:00,
2013-02-17 02:21:00,42.0,38.0,30.02,East,96,0.0,1.0,84,0.00,,,0.00,,2013-02-17 10:21:00,
2013-02-17 02:31:00,42.0,38.0,30.02,East,98,0.0,1.0,86,0.00,,,0.00,,2013-02-17 10:31:00,
2013-02-17 02:41:00,42.0,38.0,30.02,East,98,0.0,1.0,86,0.00,,,0.00,,2013-02-17 10:41:00,
2013-02-17 02:52:00,42.0,38.0,30.01,East,98,0.0,2.0,86,0.00,,,0.00,,2013-02-17 10:52:00,
2013-02-17 03:01:00,42.0,38.0,30.01,East,98,0.0,1.0,87,0.00,,,0.00,,2013-02-17 11:01:00,
2013-02-17 03:11:00,42.0,38.0,30.01,East,98,0.0,1.0,87,0.00,,,0.00,,2013-02-17 11:11:00,
2013-02-17 03:21:00,43.0,40.0,30.00,East,98,1.0,2.0,88,0.00,,,0.00,,2013-02-17 11:21:00,
2013-02-17 03:32:00,43.0,40.0,30.00,East,98,0.0,2.0,88,0.00,,,0.00,,2013-02-17 11:32:00,
2013-02-17 03:41:00,43.0,40.0,30.00,East,98,0.0,2.0,88,0.00,,,0.00,,2013-02-17 11:41:00,
2013-02-17 03:52:00,43.0,40.0,30.00,ESE,107,0.0,2.0,88,0.00,,,0.00,,2013-02-17 11:52:00,
2013-02-17 04:02:00,42.0,39.0,29.99,ESE,107,0.0,1.0,88,0.00,,,0.00,,2013-02-17 12:02:00,
2013-02-17 04:11:00,42.0,39.0,29.99,ESE,107,0.0,1.0,88,0.00,,,0.00,,2013-02-17 12:11:00,
2013-02-17 04:22:00,42.0,39.0,30.00,ESE,107,0.0,1.0,88,0.00,,,0.00,,2013-02-17 12:22:00,
2013-02-17 04:31:00,41.0,38.0,30.00,ESE,107,0.0,0.0,88,0.00,,,0.00,,2013-02-17 12:31:00,
2013-02-17 04:42:00,41.0,38.0,30.00,ESE,107,0.0,0.0,88,0.00,,,0.00,,2013-02-17 12:42:00,
2013-02-17 04:52:00,41.0,38.0,30.00,ESE,106,1.0,1.0,89,0.00,,,0.00,,2013-02-17 12:52:00,
2013-02-17 05:01:00,42.0,39.0,30.00,ESE,107,0.0,1.0,89,0.00,,,0.00,,2013-02-17 13:01:00,
2013-02-17 05:11:00,42.0,39.0,30.00,ESE,107,0.0,1.0,89,0.00,,,0.00,,2013-02-17 13:11:00,
2013-02-17 05:21:00,41.0,38.0,30.00,ESE,107,0.0,2.0,89,0.00,,,0.00,,2013-02-17 13:21:00,
2013-02-17 05:32:00,41.0,38.0,30.00,ESE,106,0.0,1.0,89,0.00,,,0.00,,2013-02-17 13:32:00,
2013-02-17 05:41:00,41.0,38.0,30.00,ESE,106,0.0,1.0,89,0.00,,,0.00,,2013-02-17 13:41:00,
2013-02-17 05:52:00,41.0,38.0,30.01,ESE,107,1.0,2.0,89,0.00,,,0.00,,2013-02-17 13:52:00,
2013-02-17 06:01:00,41.0,38.0,30.01,ESE,105,1.0,3.0,89,0.00,,,0.00,,2013-02-17 14:01:00,
2013-02-17 06:11:00,41.0,38.0,30.01,ESE,105,1.0,3.0,89,0.00,,,0.00,,2013-02-17 14:11:00,
2013-02-17 06:21:00,42.0,39.0,30.01,ESE,105,0.0,0.0,90,0.00,,,0.00,,2013-02-17 14:21:00,
2013-02-17 06:32:00,42.0,39.0,30.01,ESE,106,0.0,1.0,90,0.00,,,0.00,,2013-02-17 14:32:00,
2013-02-17 06:42:00,42.0,39.0,30.01,ESE,106,0.0,1.0,90,0.00,,,0.00,,2013-02-17 14:42:00,
2013-02-17 06:52:00,42.0,39.0,30.01,ESE,106,0.0,2.0,90,0.00,,,0.00,,2013-02-17 14:52:00,
2013-02-17 07:01:00,42.0,39.0,30.02,ESE,105,1.0,3.0,90,0.00,,,0.00,,2013-02-17 15:01:00,
2013-02-17 07:11:00,42.0,39.0,30.02,ESE,105,1.0,3.0,90,0.00,,,0.00,,2013-02-17 15:11:00,
2013-02-17 07:21:00,42.0,39.0,30.02,ESE,104,0.0,3.0,90,0.00,,,0.00,,2013-02-17 15:21:00,
2013-02-17 07:31:00,43.0,40.0,30.02,ESE,104,0.0,2.0,90,0.00,,,0.00,,2013-02-17 15:31:00,
2013-02-17 07:41:00,43.0,40.0,30.02,ESE,104,0.0,2.0,90,0.00,,,0.00,,2013-02-17 15:41:00,
2013-02-17 07:52:00,43.0,40.0,30.03,ESE,104,0.0,1.0,90,0.00,,,0.00,,2013-02-17 15:52:00,
2013-02-17 08:01:00,44.0,41.0,30.03,East,98,2.0,3.0,90,0.00,,,0.00,,2013-02-17 16:01:00,
2013-02-17 08:11:00,44.0,41.0,30.03,East,98,2.0,3.0,90,0.00,,,0.00,,2013-02-17 16:11:00,
2013-02-17 08:21:00,44.0,41.0,30.03,East,98,0.0,1.0,90,0.00,,,0.00,,2013-02-17 16:21:00,
2013-02-17 08:31:00,45.0,42.0,30.03,East,98,0.0,2.0,90,0.00,,,0.00,,2013-02-17 16:31:00,
2013-02-17 08:41:00,45.0,42.0,30.03,East,98,0.0,2.0,90,0.00,,,0.00,,2013-02-17 16:41:00,
2013-02-17 08:52:00,46.0,43.0,30.04,East,98,0.0,2.0,90,0.00,,,0.00,,2013-02-17 16:52:00,
2013-02-17 09:02:00,46.0,43.0,30.04,East,98,0.0,0.0,90,0.00,,,0.00,,2013-02-17 17:02:00,
2013-02-17 09:11:00,46.0,43.0,30.04,East,98,0.0,0.0,90,0.00,,,0.00,,2013-02-17 17:11:00,
2013-02-17 09:21:00,47.0,44.0,30.04,East,98,0.0,2.0,89,0.00,,,0.00,,2013-02-17 17:21:00,
2013-02-17 09:31:00,48.0,45.0,30.04,WNW,302,0.0,4.0,88,0.00,,,0.00,,2013-02-17 17:31:00,
2013-02-17 09:41:00,48.0,45.0,30.04,WNW,302,0.0,4.0,88,0.00,,,0.00,,2013-02-17 17:41:00,
2013-02-17 09:52:00,50.0,45.0,30.04,WNW,288,1.0,4.0,83,0.00,,,0.00,,2013-02-17 17:52:00,
2013-02-17 10:01:00,51.0,45.0,30.03,SW,230,1.0,3.0,81,0.00,,,0.00,,2013-02-17 18:01:00,
2013-02-17 10:11:00,51.0,45.0,30.03,SW,230,1.0,3.0,81,0.00,,,0.00,,2013-02-17 18:11:00,
2013-02-17 10:21:00,51.0,44.0,30.04,NE,36,1.0,4.0,78,0.00,,,0.00,,2013-02-17 18:21:00,
2013-02-17 10:33:00,53.0,45.0,30.03,South,173,2.0,4.0,74,0.00,,,0.00,,2013-02-17 18:33:00,
2013-02-17 10:41:00,53.0,45.0,30.03,South,173,2.0,4.0,74,0.00,,,0.00,,2013-02-17 18:41:00,
2013-02-17 10:52:00,55.0,46.0,30.03,South,182,0.0,3.0,71,0.00,,,0.00,,2013-02-17 18:52:00,
2013-02-17 11:01:00,56.0,45.0,30.03,ESE,119,1.0,3.0,67,0.00,,,0.00,,2013-02-17 19:01:00,
2013-02-17 11:11:00,56.0,45.0,30.03,ESE,119,1.0,3.0,67,0.00,,,0.00,,2013-02-17 19:11:00,
2013-02-17 11:21:00,56.0,44.0,30.03,SE,146,2.0,4.0,65,0.00,,,0.00,,2013-02-17 19:21:00,
2013-02-17 11:31:00,57.0,44.0,30.03,NE,53,1.0,5.0,61,0.00,,,0.00,,2013-02-17 19:31:00,
2013-02-17 11:41:00,57.0,44.0,30.03,NE,53,1.0,5.0,61,0.00,,,0.00,,2013-02-17 19:41:00,
2013-02-17 11:52:00,59.0,43.0,30.02,NE,46,1.0,4.0,56,0.00,,,0.00,,2013-02-17 19:52:00,
2013-02-17 12:01:00,60.0,43.0,30.02,ENE,59,1.0,7.0,53,0.00,,,0.00,,2013-02-17 20:01:00,
2013-02-17 12:11:00,60.0,43.0,30.02,ENE,59,1.0,7.0,53,0.00,,,0.00,,2013-02-17 20:11:00,
2013-02-17 12:21:00,61.0,42.0,30.01,NE,34,3.0,8.0,49,0.00,,,0.00,,2013-02-17 20:21:00,
2013-02-17 12:31:00,61.0,40.0,30.00,ENE,62,3.0,6.0,46,0.00,,,0.00,,2013-02-17 20:31:00,
2013-02-17 12:42:00,61.0,40.0,30.00,ENE,62,3.0,6.0,46,0.00,,,0.00,,2013-02-17 20:42:00,
2013-02-17 12:52:00,62.0,41.0,29.99,North,355,5.0,8.0,46,0.00,,,0.00,,2013-02-17 20:52:00,
2013-02-17 13:01:00,62.0,43.0,29.98,NE,53,1.0,5.0,49,0.00,,,0.00,,2013-02-17 21:01:00,
2013-02-17 13:11:00,62.0,43.0,29.98,NE,53,1.0,5.0,49,0.00,,,0.00,,2013-02-17 21:11:00,
2013-02-17 13:21:00,62.0,43.0,29.98,NE,40,1.0,5.0,50,0.00,,,0.00,,2013-02-17 21:21:00,
2013-02-17 13:31:00,63.0,43.0,29.98,WNW,295,2.0,4.0,48,0.00,,,0.00,,2013-02-17 21:31:00,
2013-02-17 13:41:00,63.0,43.0,29.98,WNW,295,2.0,4.0,48,0.00,,,0.00,,2013-02-17 21:41:00,
2013-02-17 13:52:00,64.0,43.0,29.97,WNW,296,3.0,5.0,46,0.00,,,0.00,,2013-02-17 21:52:00,
2013-02-17 14:01:00,65.0,43.0,29.96,NNW,342,2.0,3.0,44,0.00,,,0.00,,2013-02-17 22:01:00,
2013-02-17 14:11:00,65.0,43.0,29.96,NNW,342,2.0,3.0,44,0.00,,,0.00,,2013-02-17 22:11:00,
2013-02-17 14:21:00,64.0,42.0,29.96,North,5,1.0,8.0,44,0.00,,,0.00,,2013-02-17 22:21:00,
2013-02-17 14:32:00,65.0,41.0,29.96,NE,55,1.0,9.0,41,0.00,,,0.00,,2013-02-17 22:32:00,
2013-02-17 14:41:00,65.0,41.0,29.96,NE,55,1.0,9.0,41,0.00,,,0.00,,2013-02-17 22:41:00,
2013-02-17 14:52:00,65.0,39.0,29.95,NNE,17,3.0,5.0,38,0.00,,,0.00,,2013-02-17 22:52:00,
2013-02-17 15:01:00,65.0,39.0,29.95,ENE,72,3.0,6.0,39,0.00,,,0.00,,2013-02-17 23:01:00,
2013-02-17 15:11:00,65.0,39.0,29.95,ENE,72,3.0,6.0,39,0.00,,,0.00,,2013-02-17 23:11:00,
2013-02-17 15:21:00,65.0,39.0,29.95,NNE,24,3.0,8.0,39,0.00,,,0.00,,2013-02-17 23:21:00,
2013-02-17 15:31:00,64.0,40.0,29.95,NW,315,2.0,6.0,41,0.00,,,0.00,,2013-02-17 23:31:00,
2013-02-17 15:41:00,64.0,40.0,29.95,NW,315,2.0,6.0,41,0.00,,,0.00,,2013-02-17 23:41:00,
2013-02-17 15:52:00,65.0,39.0,29.95,NE,38,3.0,7.0,39,0.00,,,0.00,,2013-02-17 23:52:00,
2013-02-17 16:01:00,65.0,39.0,29.94,NE,46,0.0,5.0,38,0.00,,,0.00,,2013-02-18 00:01:00,
2013-02-17 16:11:00,65.0,39.0,29.94,NE,46,0.0,5.0,38,0.00,,,0.00,,2013-02-18 00:11:00,
2013-02-17 16:22:00,65.0,39.0,29.94,ENE,74,2.0,5.0,38,0.00,,,0.00,,2013-02-18 00:22:00,
2013-02-17 16:31:00,65.0,41.0,29.93,NE,56,4.0,5.0,41,0.00,,,0.00,,2013-02-18 00:31:00,
2013-02-17 16:41:00,65.0,41.0,29.93,NE,56,4.0,5.0,41,0.00,,,0.00,,2013-02-18 00:41:00,
2013-02-17 16:52:00,64.0,39.0,29.94,North,355,2.0,7.0,40,0.00,,,0.00,,2013-02-18 00:52:00,
2013-02-17 17:01:00,64.0,40.0,29.94,NNE,30,4.0,7.0,41,0.00,,,0.00,,2013-02-18 01:01:00,
2013-02-17 17:11:00,64.0,40.0,29.94,NNE,30,4.0,7.0,41,0.00,,,0.00,,2013-02-18 01:11:00,
2013-02-17 17:21:00,63.0,39.0,29.94,NNE,14,3.0,5.0,41,0.00,,,0.00,,2013-02-18 01:21:00,
2013-02-17 17:31:00,62.0,44.0,29.94,WNW,302,3.0,6.0,51,0.00,,,0.00,,2013-02-18 01:31:00,
2013-02-17 17:41:00,62.0,44.0,29.94,WNW,302,3.0,6.0,51,0.00,,,0.00,,2013-02-18 01:41:00,
2013-02-17 17:51:00,61.0,44.0,29.94,WNW,296,2.0,4.0,53,0.00,,,0.00,,2013-02-18 01:51:00,
2013-02-17 18:01:00,60.0,44.0,29.94,West,261,2.0,4.0,56,0.00,,,0.00,,2013-02-18 02:01:00,
2013-02-17 18:11:00,60.0,44.0,29.94,West,261,2.0,4.0,56,0.00,,,0.00,,2013-02-18 02:11:00,
2013-02-17 18:21:00,59.0,44.0,29.94,WSW,248,2.0,5.0,58,0.00,,,0.00,,2013-02-18 02:21:00,
2013-02-17 18:31:00,58.0,44.0,29.94,WSW,252,1.0,4.0,60,0.00,,,0.00,,2013-02-18 02:31:00,
2013-02-17 18:41:00,58.0,44.0,29.94,WSW,252,1.0,4.0,60,0.00,,,0.00,,2013-02-18 02:41:00,
2013-02-17 18:52:00,57.0,44.0,29.95,WSW,248,2.0,5.0,62,0.00,,,0.00,,2013-02-18 02:52:00,
2013-02-17 19:01:00,56.0,44.0,29.95,WSW,251,1.0,3.0,63,0.00,,,0.00,,2013-02-18 03:01:00,
2013-02-17 19:11:00,56.0,44.0,29.95,WSW,251,1.0,3.0,63,0.00,,,0.00,,2013-02-18 03:11:00,
2013-02-17 19:21:00,55.0,43.0,29.96,West,271,0.0,3.0,63,0.00,,,0.00,,2013-02-18 03:21:00,
2013-02-17 19:31:00,54.0,42.0,29.95,West,262,1.0,3.0,64,0.00,,,0.00,,2013-02-18 03:31:00,
2013-02-17 19:41:00,54.0,42.0,29.95,West,262,1.0,3.0,64,0.00,,,0.00,,2013-02-18 03:41:00,
2013-02-17 19:52:00,53.0,42.0,29.96,WSW,248,0.0,4.0,65,0.00,,,0.00,,2013-02-18 03:52:00,
2013-02-17 20:01:00,53.0,42.0,29.96,WSW,248,0.0,1.0,67,0.00,,,0.00,,2013-02-18 04:01:00,
2013-02-17 20:11:00,53.0,42.0,29.96,WSW,248,0.0,1.0,67,0.00,,,0.00,,2013-02-18 04:11:00,
2013-02-17 20:21:00,52.0,43.0,29.96,WSW,248,0.0,2.0,70,0.00,,,0.00,,2013-02-18 04:21:00,
2013-02-17 20:32:00,51.0,42.0,29.96,WSW,248,0.0,1.0,72,0.00,,,0.00,,2013-02-18 04:32:00,
2013-02-17 20:41:00,51.0,42.0,29.96,WSW,248,0.0,1.0,72,0.00,,,0.00,,2013-02-18 04:41:00,
2013-02-17 20:52:00,50.0,41.0,29.96,WSW,248,0.0,1.0,70,0.00,,,0.00,,2013-02-18 04:52:00,
2013-02-17 21:01:00,49.0,39.0,29.96,WSW,248,0.0,1.0,69,0.00,,,0.00,,2013-02-18 05:01:00,
2013-02-17 21:11:00,49.0,39.0,29.96,WSW,248,0.0,1.0,69,0.00,,,0.00,,2013-02-18 05:11:00,
2013-02-17 21:21:00,48.0,38.0,29.96,WSW,248,0.0,1.0,68,0.00,,,0.00,,2013-02-18 05:21:00,
2013-02-17 21:31:00,48.0,38.0,29.97,WSW,248,0.0,1.0,68,0.00,,,0.00,,2013-02-18 05:31:00,
2013-02-17 21:41:00,48.0,38.0,29.97,WSW,248,0.0,1.0,68,0.00,,,0.00,,2013-02-18 05:41:00,
2013-02-17 21:52:00,47.0,37.0,29.97,WSW,248,0.0,1.0,68,0.00,,,0.00,,2013-02-18 05:52:00,
2013-02-17 22:01:00,47.0,37.0,29.98,WSW,248,1.0,2.0,69,0.00,,,0.00,,2013-02-18 06:01:00,
2013-02-17 22:11:00,47.0,37.0,29.98,WSW,248,1.0,2.0,69,0.00,,,0.00,,2013-02-18 06:11:00,
2013-02-17 22:21:00,46.0,37.0,29.98,WSW,248,0.0,0.0,70,0.00,,,0.00,,2013-02-18 06:21:00,
2013-02-17 22:31:00,45.0,36.0,29.98,WSW,248,0.0,1.0,71,0.00,,,0.00,,2013-02-18 06:31:00,
2013-02-17 22:41:00,45.0,37.0,29.98,WSW,248,1.0,2.0,72,0.00,,,0.00,,2013-02-18 06:41:00,
2013-02-17 22:52:00,45.0,37.0,29.98,WSW,248,1.0,2.0,72,0.00,,,0.00,,2013-02-18 06:52:00,
2013-02-17 23:01:00,44.0,36.0,29.98,WSW,248,0.0,0.0,72,0.00,,,0.00,,2013-02-18 07:01:00,
2013-02-17 23:11:00,44.0,36.0,29.98,WSW,248,0.0,0.0,72,0.00,,,0.00,,2013-02-18 07:11:00,
2013-02-17 23:21:00,44.0,36.0,29.98,WSW,248,0.0,1.0,74,0.00,,,0.00,,2013-02-18 07:21:00,
2013-02-17 23:31:00,44.0,37.0,29.98,WSW,248,0.0,1.0,75,0.00,,,0.00,,2013-02-18 07:31:00,
2013-02-17 23:42:00,44.0,37.0,29.98,WSW,248,0.0,1.0,75,0.00,,,0.00,,2013-02-18 07:42:00,
2013-02-17 23:52:00,43.0,36.0,29.99,WSW,248,0.0,0.0,75,0.00,,,0.00,,2013-02-18 07:52:00,